全球卫星定位系统 GPS 50星 (NAVSTAR 50 (USA 156))

导读

NAVSTAR 50(USA 156)是美国于2001年1月30日8时发射的GPS导航卫星,隶属于美国全球定位系统(GPS)空间星座,运行于中地球轨道,属于GPS Block IIF系列的早期导航卫星。它承担着为全球用户提供高精度全天候导航定位、测速与授时服务的功能,补充完善了GPS星座覆盖能力,支撑陆海空天各领域的导航应用,助力维持GPS系统稳定运行,是美国全球导航网络重要组成部分。

Basic Information
目录编号:
26690
目录名称:
NAVSTAR 50 (USA 156)
国际标识:
2001-004A
轨道中心:
EARTH
卫星名称:
GPS 50星
卫星全名:
全球卫星定位系统 GPS 50星 (NAVSTAR 50 (USA 156))
卫星状态:
在轨 (已飞行9264 天)
发射日期:
2001-01-30 UTC
国别 :
美国 (US)
星等 :
--
Orbit Information
数据来源 国际轨道数据 AOE轨道数据
星历时间 2026-06-09T21:51:52+0800
3天前
查看轨道信息
2026-06-07T11:00:00+0800
5天前
查看轨道信息
半长轴 27383.553km 27383.534km
偏心率 0.0003322 0.0003327
轨道倾角 55.213° 55.211°
近地点辐角 27.127° 27.580°
升交点赤经 33.029° 33.118°
平近点角 151.020° 258.860°
近地点 20996.319km 20996.286km
远地点 21014.513km 21014.508km
周期 751.613分钟 751.612分钟
每日圈数 1.915879 1.915881
Detailed Information
平衡模式:
三轴稳定
覆盖范围:
全球
运营商:
美国太空军
运营商所在国:
美国
制造商(研发单位):
洛克希德·马丁公司
制造商所在国:
美国
使用方式:
暂无
Satellite Introduction
全球定位系统(英语:Global Positioning System,通常简称GPS),又称全球卫星定位系统,是美国国防部研制,美国太空军运营与维护的中地球轨道卫星导航系统。它可以为地球表面约98%的地区提供准确的定位、测速和高精度的标准时间。全球定位系统可满足位于全球地面任何一处或近地空间的军事用户连续且精确地确定三维位置、三维运动和时间的需求。该系统包括太空中的31颗GPS人造卫星.该卫星仍在工作。
2D Orbit Map
3D Orbit Map
Orbit Altitude Analysis Chart
Orbit Inclination Analysis Chart
Orbit Comprehensive Analysis Chart
View Comprehensive Chart